Change the Weather History Date:

Thursday, July 25, 2013

  Actual Average Record
Temperature  
Mean Temperature 66 °F -  
Max Temperature 76 °F 79 °F 92 °F (2007)
Min Temperature 57 °F 57 °F 46 °F (1998)
Cooling Degree Days 2    
Growing Degree Days 16 (Base 50)    
Moisture  
Dew Point 56 °F    
Average Humidity 77    
Maximum Humidity 99    
Minimum Humidity 42    
Precipitation  
Precipitation 0.00 in - - ()
Sea Level Pressure  
Sea Level Pressure 29.96 in    
Wind  
Wind Speed 9 mph (NNW)    
Max Wind Speed 22 mph    
Max Gust Speed 30 mph    
Visibility 10 miles    
Events Rain    
Averages and records for this station are not official NWS values.
T = Trace of Precipitation, MM = Missing Value Source: NWS Daily Summary

Daily Weather History Graph

Daily Weather History Graph

Search for Another Location

Airport or City:

Trip Planner

Search our weather history database for the weather conditions in past years. The results will help you decide how hot, cold, wet, or windy it might be!

Date:

Astronomy

Jul. 25, 2013 Rise Set
Actual Time 5:57 AM CDT 9:13 PM CDT
Civil Twilight 5:19 AM CDT 9:51 PM CDT
Nautical Twilight 4:30 AM CDT 10:40 PM CDT
Astronomical Twilight 3:27 AM CDT 11:42 PM CDT
Moon 10:31 PM CDT (7/25) 9:49 AM CDT (7/25)
Length of Visible Light 16h 31m
Length of Day
15h 16m
Waning Gibbous, 88% of the Moon is Illuminated
Jul 25
Waning Gibbous
Jul 29
Last Quarter
Aug 6
New
Aug 14
First Quarter
Aug 20
Full

Hourly Weather History & Observations

Time (CDT) Temp. Dew Point Humidity Pressure Visibility Wind Dir Wind Speed Gust Speed Precip Events Conditions
12:58 AM 57.6 °F 57.2 °F 99% 29.96 in 10.0 mi WNW 4.6 mph - N/A   Clear
1:58 AM 57.9 °F 57.7 °F 99% 29.96 in 10.0 mi NW 5.8 mph - N/A   Clear
2:58 AM 57.6 °F 57.4 °F 99% 29.94 in 10.0 mi WNW 1.2 mph - N/A   Clear
3:58 AM 58.3 °F 58.1 °F 99% 29.93 in 10.0 mi West 2.3 mph - N/A   Mostly Cloudy
4:58 AM 58.6 °F 58.3 °F 99% 29.94 in 10.0 mi West 4.6 mph - N/A   Mostly Cloudy
5:58 AM 58.6 °F 58.5 °F 99% 29.95 in 10.0 mi WSW 2.3 mph - N/A   Overcast
6:58 AM 59.2 °F 58.8 °F 99% 29.95 in 10.0 mi Calm Calm - N/A   Partly Cloudy
7:58 AM 63.9 °F 62.4 °F 95% 29.94 in 10.0 mi NNW 1.2 mph - N/A   Scattered Clouds
8:58 AM 68.2 °F 61.3 °F 79% 29.94 in 10.0 mi WSW 4.6 mph - N/A   Scattered Clouds
9:58 AM 73.0 °F 60.4 °F 65% 29.93 in 10.0 mi NW 13.8 mph 20.7 mph N/A   Clear
10:58 AM 74.5 °F 58.8 °F 58% 29.93 in 10.0 mi WNW 13.8 mph - N/A   Clear
11:58 AM 76.1 °F 58.6 °F 55% 29.93 in 10.0 mi NW 16.1 mph 24.2 mph N/A   Partly Cloudy
12:58 PM 75.0 °F 57.2 °F 54% 29.92 in 10.0 mi NW 15.0 mph 24.2 mph N/A   Partly Cloudy
1:58 PM 75.2 °F 55.0 °F 49% 29.93 in 10.0 mi NNW 12.7 mph 23.0 mph N/A   Partly Cloudy
2:58 PM 74.5 °F 51.4 °F 44% 29.93 in 10.0 mi NNW 19.6 mph 25.3 mph N/A   Partly Cloudy
3:58 PM 75.6 °F 50.7 °F 42% 29.92 in 10.0 mi NNW 17.3 mph 25.3 mph N/A   Partly Cloudy
5:00 PM 73.4 °F 53.6 °F 50% 29.94 in 10.0 mi NNW 17.3 mph 28.8 mph N/A   Scattered Clouds
6:08 PM 71.6 °F 51.8 °F 50% 29.95 in 10.0 mi NNW 21.9 mph 29.9 mph N/A   Scattered Clouds
6:55 PM 68.0 °F 53.6 °F 60% 29.95 in 10.0 mi NNW 17.3 mph 23.0 mph N/A   Partly Cloudy
7:55 PM 66.2 °F 53.6 °F 64% 29.96 in 10.0 mi North 15.0 mph - N/A   Partly Cloudy
8:55 PM 62.6 °F 53.6 °F 72% 29.97 in 10.0 mi North 12.7 mph 20.7 mph N/A   Partly Cloudy
9:55 PM 59.0 °F 53.6 °F 82% 29.99 in 10.0 mi North 12.7 mph 19.6 mph N/A   Clear
10:22 PM 59.0 °F 53.6 °F 82% 29.99 in 10.0 mi North 12.7 mph - N/A   Mostly Cloudy
10:34 PM 59.0 °F 55.4 °F 88% 30.00 in 10.0 mi North 18.4 mph 25.3 mph N/A Rain Light Rain
10:46 PM 59.0 °F 55.4 °F 88% 30.00 in 10.0 mi North 16.1 mph 25.3 mph N/A   Light Drizzle
10:49 PM 59.0 °F 55.4 °F 88% 30.00 in 10.0 mi North 12.7 mph 25.3 mph N/A   Overcast
10:58 PM 58.3 °F 54.9 °F 88% 30.01 in 10.0 mi North 16.1 mph 20.7 mph 0.00 in   Overcast
11:38 PM 59.0 °F 53.6 °F 82% 30.00 in 10.0 mi North 17.3 mph 21.9 mph N/A   Light Drizzle
11:43 PM 57.2 °F 53.6 °F 88% 30.01 in 10.0 mi North 18.4 mph - N/A   Light Drizzle
11:47 PM 57.2 °F 53.6 °F 88% 30.01 in 10.0 mi North 15.0 mph 24.2 mph N/A   Overcast
11:57 PM 57.2 °F 53.6 °F 88% 30.01 in 10.0 mi North 18.4 mph 23.0 mph N/A   Overcast
11:58 PM 57.6 °F 53.8 °F 87% 30.02 in 10.0 mi North 18.4 mph 23.0 mph 0.00 in   Overcast